Find Siwei Gaojing 2-06

NORAD ID: 68378 Int'l Des: 2026-062 Owner: SIWEI Country: CN operational
LEOCIRCULARRETROGRADESSO

当前视图

正在加载3D地球...

About Siwei Gaojing 2-06

Siwei Gaojing 2-06 (NORAD 68378) is a satellite launched Mar 25, 2026 by SIWEI of CN. It operates in LEO, CIRCULAR, RETROGRADE, SSO orbit with a mass of 600.00 kg.

即将过境

Passes for default location (London). Set your location on the main map for personalized predictions.

高度历史

Loading altitude history...

两行轨道根数

1 68378U 26062B 26174.47133679 .00001738 00000-0 84520-4 0 9990
2 68378 97.4356 181.6883 0001291 112.1628 247.9744 15.19722901 13601
Epoch: Jun 23, 2026 • Age: 38 hours

当前状态

高度 521.3 km
速度 7.60 km/s
星下点 -36.47°S, 100.6°W
发射日期 Mar 25, 2026
运行时间 0.2 years
类型 other

技术详情

分类 Payload
质量 600.00 kg
干质量 500.00 kg
总质量 600.00 kg
长度 0.50 m
直径 0.50 m
跨度 0.50 m
形状 Box
制造商 DFHZ
平台类型 Siwei
阶段状态 In Orbit
所有者/国家 SIWEI/CN

Most Searched